Terug naar catalogus

FENGYUN 1C DEB

ActiefSSO
NORAD 30689·DEBRIS·🇨🇳 China

Gelanceerd May 10, 1999 vanaf Taiyuan Satellite Launch Center

Loading…

Volgende Passages (komende 24 uur)

TLE

VersSource: Space-Track

Epoch: Sep 14, 2026, 11:07 UTC

1 30689U 99025AQX 26257.46379846  .00000467  00000-0  26180-3 0  9997
2 30689  98.7338 241.2374 0111209  40.0718 110.5982 14.12158042  7734

Volg FENGYUN 1C DEB in realtime met AllMySat

Download on the App Store